Back to catalog

ELECTRON R/B

AliveVLEO
NORAD 100245·ROCKET BODY·🇺🇸 United States

Launched Aug 6, 2026 from Rocket Lab Launch Complex 1

Loading…

Next Passes (next 24 hours)

TLE

FreshSource: Space-Track

Epoch: Sep 14, 2026, 01:36 UTC

1 A0245U 26180C   26257.06670890  .00775675  24561-3  12180-2 0  9998
2 A0245  41.9948 152.8337 0124699 153.6608 207.0661 15.89918729  6082

Track ELECTRON R/B in real time with AllMySat

Download on the App Store